Temperature
24 21 20 21 21 22 23 23 22 23 24 24 23 23 24 24 24 23 23 23 23 23 23 23 23 23 22 22 22 21 21 20 20 20 20 19 19 19 19 18 18 18 18 18
21 21 22 23 23 24 23 23 23 23 24 24 23 23 23 23 23 24 23 22 22 22 22 22 22 22 22 22 22 21 21 21 20 20 20 19 19 19 18 18 18 18 18 18
21 22 23 24 24 24 23 22 23 23 24 24 23 22 22 23 24 24 23 23 22 22 22 22 22 22 22 22 21 21 21 21 20 20 19 19 18 18 18 18 18 18 18 18
21 23 24 24 24 24 23 24 24 24 22 21 22 21 21 21 22 22 22 22 22 22 22 22 22 22 22 22 21 21 21 20 20 19 19 19 19 18 18 18 18 18 17 17
22 23 24 24 24 25 23 25 24 24 22 21 21 20 20 21 21 22 22 22 22 22 22 22 22 22 22 21 21 21 20 20 19 19 19 19 18 18 18 18 18 17 17 17
22 24 24 25 26 25 25 24 23 21 19 20 21 21 20 20 21 21 21 22 22 22 22 22 22 21 21 21 20 20 20 20 19 19 19 18 18 18 18 17 17 17 17 17
22 23 25 26 25 25 24 21 20 20 19 19 20 21 20 21 22 21 21 22 22 22 22 22 21 21 21 20 20 20 20 20 19 19 18 18 18 18 18 17 17 17 17 17
21 21 24 25 24 23 23 21 20 20 19 19 20 21 20 22 22 23 22 22 22 22 22 21 21 21 21 20 20 20 20 19 19 19 18 18 18 18 17 17 17 17 17 16
21 21 24 25 26 24 23 21 20 19 20 20 19 20 21 21 21 21 21 21 21 21 21 21 21 21 21 20 20 20 19 19 19 19 18 18 18 17 17 17 17 17 16 16
21 22 23 25 25 24 23 22 18 18 19 19 20 20 20 21 20 20 20 20 21 21 21 21 20 20 20 20 20 19 19 19 19 18 18 18 17 17 17 17 17 17 16 16
21 20 21 23 24 23 23 22 19 17 18 19 19 19 21 20 20 20 20 20 21 21 21 21 21 20 20 20 20 19 19 19 18 18 18 17 17 17 17 17 17 16 16 16
19 18 19 21 22 24 23 22 19 19 19 18 18 19 21 20 19 20 20 21 21 21 21 21 20 20 20 19 19 19 19 18 18 18 18 17 17 17 17 16 16 16 16 16
20 18 18 20 20 22 22 22 20 18 17 17 18 19 20 19 19 20 20 20 20 20 20 20 20 19 19 19 19 18 18 18 18 18 17 17 17 17 16 16 16 16 16 16
20 17 18 19 19 20 21 22 21 19 17 18 19 19 19 19 19 19 20 20 20 20 20 20 19 19 19 19 18 18 18 18 18 17 17 17 17 16 16 16 16 16 16 16
18 18 19 20 21 22 22 22 22 21 19 19 19 19 19 18 19 19 20 20 20 19 19 19 19 19 18 18 18 18 17 17 17 17 17 17 16 16 16 16 16 15 15 15
16 18 18 19 21 21 22 22 22 21 21 20 20 19 19 19 19 19 20 20 19 19 19 19 19 18 18 18 17 17 17 17 17 17 17 16 16 16 16 16 15 15 15 15
16 16 16 17 19 20 20 21 21 21 21 20 19 19 18 18 18 19 19 19 19 19 19 19 18 18 18 17 17 17 17 16 16 16 16 16 16 16 16 15 15 15 15 14
15 15 14 16 18 19 18 20 21 20 20 19 19 18 18 18 19 19 19 19 19 19 19 18 18 18 18 17 17 17 16 16 16 16 16 16 16 16 15 15 15 15 14 14
15 15 15 15 16 18 19 20 20 19 19 18 18 18 18 18 18 18 19 19 19 19 19 18 18 18 17 17 17 16 16 16 16 15 15 15 15 15 15 15 14 14 14 14
15 14 14 15 17 17 17 19 20 19 17 18 18 17 17 17 16 16 18 18 18 18 18 18 17 17 17 17 16 16 15 15 15 15 15 15 15 15 15 14 14 14 14 14
15 14 14 15 15 16 17 19 19 18 17 18 18 18 18 16 16 17 17 18 18 18 18 17 17 17 16 16 16 15 15 15 15 15 15 14 14 14 14 14 14 14 14 13
14 14 14 14 14 15 17 18 17 16 17 18 18 18 18 17 17 17 17 17 17 17 17 17 16 16 16 16 15 15 14 14 14 14 14 14 14 14 14 14 13 13 13 13
13 13 13 13 14 15 17 17 17 18 17 18 17 18 17 17 16 17 17 17 17 17 17 16 16 16 15 15 15 14 14 14 14 14 14 14 14 13 13 13 13 13 13 13
13 13 13 13 14 15 16 16 17 17 17 17 17 17 17 16 16 16 16 16 16 16 16 16 16 15 15 15 14 14 14 14 14 14 14 13 13 13 13 13 13 13 13 13
13 13 13 13 14 15 16 16 16 17 17 17 17 17 17 16 16 16 16 16 16 16 15 15 15 15 14 14 14 14 14 13 13 13 13 13 13 13 13 13 13 13 13 13
13 13 12 12 14 13 15 15 16 16 16 16 16 16 16 16 15 15 15 15 15 15 15 15 15 14 14 14 14 13 13 13 13 13 13 13 13 13 13 12 12 12 12 12
Wind_Speed
2 3 5 8 8 8 5 3 5 7 6 1 4 5 6 6 7 9 9 10 11 10 7 7 9 9 9 8 8 7 7 6 5 4 3 3 2 1 1 1 3 3 3 3
2 6 11 7 5 4 4 4 6 6 4 0 2 4 4 4 7 9 11 10 10 8 7 6 6 7 7 8 7 7 7 6 5 4 3 3 3 2 1 1 1 2 3 3
8 8 7 6 6 5 6 7 7 5 4 3 2 4 3 3 3 5 7 9 9 11 12 10 9 8 8 8 8 8 7 6 5 5 3 3 2 2 1 1 0 1 2 3
7 9 6 7 8 7 8 9 8 6 1 3 2 2 6 3 2 3 6 8 10 10 10 10 9 8 8 8 8 7 7 7 6 6 5 5 4 3 3 2 1 1 1 2
7 7 8 9 11 9 10 10 7 5 3 0 1 2 7 2 4 5 6 8 10 10 11 10 9 9 8 7 7 6 6 5 5 6 6 5 3 3 2 2 2 1 0 1
8 6 7 9 9 8 6 1 3 4 4 1 5 4 6 5 8 6 6 7 7 9 10 10 9 8 7 7 6 6 7 6 5 6 5 6 5 4 4 3 3 1 1 1
7 8 6 4 3 3 4 5 3 3 3 6 4 3 7 7 6 7 8 7 7 8 9 9 9 9 8 8 7 7 7 6 6 6 5 5 5 5 5 4 4 3 2 1
3 7 6 4 6 6 5 10 8 5 5 5 2 5 6 4 4 5 7 7 6 7 8 9 9 8 10 9 8 7 7 6 5 5 5 5 5 4 3 4 4 3 2 2
5 6 6 4 5 7 4 4 9 7 3 1 3 3 4 2 2 4 5 6 7 8 9 9 8 7 8 9 8 8 7 5 4 4 4 4 4 4 4 3 3 2 2 2
7 4 6 5 1 1 7 8 6 5 4 3 3 3 5 5 4 4 5 6 7 8 8 8 8 7 7 7 7 8 7 7 5 4 4 4 4 3 4 3 3 2 2 2
5 4 6 2 3 4 2 3 5 5 6 5 3 6 6 9 8 7 6 7 8 9 9 8 7 7 7 7 6 6 6 6 5 4 4 4 4 3 3 3 3 3 2 2
3 5 4 7 6 5 6 6 7 5 4 5 4 7 4 6 6 7 7 6 7 8 8 8 7 6 6 7 6 6 6 6 5 4 4 4 4 3 3 3 2 2 2 2
3 5 0 6 6 3 1 3 5 6 4 4 4 6 2 2 3 5 6 6 6 7 7 7 6 6 7 7 6 6 5 5 4 4 4 4 3 3 3 3 3 2 2 2
4 4 6 8 8 4 3 2 2 5 4 4 6 6 4 2 4 3 4 6 7 8 8 7 5 5 5 6 6 6 5 5 5 5 5 4 3 3 3 2 2 2 2 2
4 3 3 4 5 3 4 4 2 3 6 7 7 8 9 8 8 7 6 6 7 7 7 7 7 6 4 4 4 4 4 4 5 5 4 4 3 3 3 2 2 2 2 3
4 2 2 3 3 2 3 3 3 3 4 4 4 5 7 6 5 6 6 7 7 7 7 7 7 7 6 5 4 4 4 4 5 5 4 3 3 2 3 2 3 3 2 2
2 3 3 3 4 2 4 5 4 3 3 5 6 7 5 5 6 7 6 6 7 7 6 8 8 8 8 6 5 5 5 4 4 5 4 3 3 3 3 3 3 3 3 2
5 4 3 0 3 3 7 4 2 3 0 1 3 5 7 7 6 5 7 7 6 7 7 7 7 7 7 6 5 4 5 5 4 4 4 3 3 3 3 4 3 3 2 2
6 7 4 2 2 4 5 4 1 2 1 1 3 4 4 6 5 2 1 6 5 5 5 5 6 7 6 6 6 5 5 5 4 4 4 4 4 4 4 4 4 3 2 2
4 5 5 3 3 4 6 7 4 3 1 3 3 5 5 5 3 3 2 4 4 4 4 4 4 5 5 5 6 6 5 4 4 4 4 4 4 4 5 5 4 3 3 3
2 2 3 4 3 5 6 6 3 3 5 3 3 5 5 4 5 5 5 5 5 5 5 5 5 5 5 5 6 5 4 4 4 3 3 3 3 4 4 4 3 3 3 3
3 3 3 3 3 6 5 3 1 5 4 1 3 5 5 5 6 6 5 5 5 5 5 6 6 5 4 6 6 5 4 3 3 2 2 2 2 3 2 3 3 3 4 3
2 4 4 5 6 5 3 2 2 3 2 2 3 4 6 6 5 4 4 3 3 5 4 4 5 5 4 5 6 6 4 3 2 2 2 2 1 2 2 3 3 3 3 3
3 1 2 0 3 3 1 1 1 2 3 3 4 6 7 6 5 4 3 3 3 3 4 4 4 4 3 3 4 4 3 3 2 2 2 2 2 2 2 2 2 3 3 4
3 1 1 1 3 3 3 1 0 2 4 4 3 4 6 7 4 4 3 3 3 3 3 4 4 4 3 3 3 3 3 3 2 2 2 2 2 3 2 2 2 3 4 5
3 3 3 4 5 3 3 2 1 2 3 3 4 4 4 6 5 4 3 2 3 3 3 3 3 3 3 3 2 2 2 3 2 2 1 2 2 2 2 2 2 3 3 6
Wind_Direction
236 117 218 226 208 201 211 238 266 270 272 204 215 225 232 201 174 172 167 165 167 174 182 173 160 155 153 150 146 152 148 154 143 138 143 142 155 150 125 155 157 157 157 141
12 240 230 224 222 215 225 251 277 287 297 191 211 248 249 206 193 184 173 173 170 163 158 161 156 154 158 158 155 152 156 156 155 157 157 156 153 157 163 143 128 151 150 153
206 235 225 212 229 230 248 224 235 239 314 7 56 335 274 259 202 184 173 169 166 169 168 168 165 165 158 164 166 164 161 157 158 151 129 116 92 64 71 82 133 131 142 135
238 242 230 215 226 212 247 235 216 216 172 291 100 261 280 243 260 207 177 173 180 178 170 169 168 170 166 169 164 157 158 159 160 152 147 146 157 172 191 183 168 145 127 128
243 230 215 218 228 209 223 232 220 211 172 260 350 141 282 276 227 237 201 185 185 178 170 166 169 170 161 152 147 153 150 155 159 158 159 155 158 175 165 143 136 142 95 113
250 254 214 217 231 216 218 251 27 45 81 255 238 177 268 237 211 206 197 179 172 166 165 164 165 153 147 141 145 150 153 163 167 163 160 160 160 155 142 142 147 145 105 70
292 287 264 227 238 258 147 114 51 7 11 247 237 182 244 240 201 184 183 184 174 162 157 153 154 154 155 154 155 150 154 161 165 163 167 169 165 154 154 162 164 153 136 116
230 277 260 218 192 201 187 146 158 183 213 268 295 210 250 246 194 173 171 167 161 160 157 156 158 161 165 161 158 153 158 161 161 164 174 171 159 153 159 168 160 157 162 171
195 254 269 239 201 168 163 166 166 144 175 228 270 273 314 347 138 142 144 148 164 167 159 157 152 154 158 159 160 159 157 151 156 161 160 161 159 156 156 153 147 156 165 156
174 245 279 277 0 192 165 155 102 118 157 239 266 243 225 223 193 160 156 156 169 160 153 151 154 158 156 155 159 156 154 154 153 153 150 148 153 158 160 150 152 157 163 155
167 193 284 322 196 206 126 114 116 131 152 167 232 261 223 200 188 170 165 159 160 159 159 158 159 162 154 145 143 146 148 143 145 148 139 147 157 155 149 155 166 171 171 163
178 156 243 255 247 195 169 170 146 153 210 172 178 257 267 179 171 155 151 156 159 157 157 154 158 155 148 146 146 143 149 152 156 149 139 147 154 152 153 162 168 161 167 174
145 124 163 320 327 351 137 169 149 140 131 159 179 257 309 131 127 143 145 145 146 141 141 144 148 151 154 153 151 151 153 156 153 141 139 137 145 148 164 181 172 160 159 164
120 125 167 202 223 230 258 260 152 123 154 200 207 221 260 210 167 169 161 153 149 147 147 145 146 153 158 156 152 153 154 154 153 146 149 152 163 164 163 160 152 159 160 158
86 140 197 228 239 231 240 241 210 175 185 188 213 200 216 210 188 181 172 157 145 150 157 160 159 157 153 149 154 154 152 153 156 154 159 174 173 160 153 153 155 154 145 149
61 108 29 321 293 275 269 245 234 222 197 188 177 216 217 205 173 162 166 158 156 165 173 168 159 156 163 165 168 164 157 162 159 160 165 165 157 153 162 168 163 143 142 151
70 97 68 294 309 348 259 234 217 227 225 182 201 217 190 162 168 171 162 157 168 184 175 169 167 170 171 168 162 170 172 163 158 162 163 164 165 169 177 166 151 159 164 157
147 115 128 241 15 249 249 270 163 146 124 206 169 173 171 171 171 160 152 153 160 168 169 172 169 169 170 164 155 158 153 156 159 163 169 177 177 180 175 163 170 178 175 175
158 145 135 134 210 278 303 324 327 166 265 302 152 138 125 121 90 48 141 144 153 163 172 179 176 170 165 159 154 147 155 158 164 178 192 195 190 186 181 180 189 190 182 197
92 117 131 142 173 232 259 291 294 117 260 296 142 137 139 111 118 224 191 143 142 156 170 164 162 147 150 156 145 144 160 163 181 194 201 197 190 189 189 192 196 194 190 205
52 72 147 170 207 255 270 300 5 141 233 270 160 152 148 158 185 184 158 138 151 160 156 154 151 151 161 153 141 147 155 179 198 194 192 193 199 202 200 196 198 192 190 193
173 161 182 155 186 252 293 9 126 214 235 203 143 138 129 128 133 143 146 144 141 139 141 144 148 158 158 147 141 150 177 199 174 161 171 193 205 205 191 183 199 193 183 189
173 185 183 180 208 238 273 188 213 176 150 136 140 131 125 124 130 139 139 140 146 151 154 151 153 152 152 152 150 165 196 187 157 158 182 199 218 223 194 187 193 195 189 196
311 23 107 124 282 283 302 60 46 99 123 121 129 130 123 123 121 122 138 140 134 142 150 148 143 142 155 159 155 164 170 157 157 179 201 203 204 223 217 205 196 194 203 209
261 350 71 258 283 317 352 7 93 78 79 80 99 119 123 119 122 132 135 133 139 142 147 144 148 157 165 154 147 152 160 155 167 198 216 221 209 206 221 242 240 226 225 217
224 185 177 229 239 217 253 279 161 104 88 102 112 98 106 121 128 127 134 139 142 140 140 138 145 151 162 165 171 184 181 168 168 196 238 243 238 230 221 234 294 297 263 252
Height
1500 1507 1513 1509 1508 1510 1511 1516 1518 1511 1501 1503 1506 1506 1502 1501 1502 1503 1505 1507 1508 1510 1513 1515 1516 1517 1519 1521 1522 1524 1525 1527 1529 1530 1530 1531 1531 1532 1532 1532 1532 1532 1531 1531
1506 1509 1501 1500 1501 1505 1509 1515 1515 1509 1500 1502 1506 1506 1502 1500 1501 1501 1503 1504 1506 1508 1511 1513 1515 1516 1518 1519 1521 1522 1524 1526 1527 1528 1529 1530 1531 1531 1531 1531 1531 1531 1531 1530
1506 1500 1495 1498 1502 1505 1508 1512 1512 1511 1504 1502 1506 1512 1506 1501 1500 1501 1502 1503 1505 1506 1508 1510 1513 1514 1516 1517 1518 1521 1522 1524 1526 1528 1529 1529 1530 1530 1530 1530 1530 1530 1530 1530
1500 1493 1494 1497 1499 1501 1509 1499 1502 1504 1512 1519 1513 1530 1512 1504 1502 1500 1501 1502 1504 1505 1507 1508 1510 1512 1513 1515 1518 1520 1521 1523 1524 1526 1527 1527 1527 1528 1528 1529 1529 1529 1529 1529
1496 1490 1492 1495 1492 1493 1497 1491 1496 1500 1509 1518 1517 1527 1519 1506 1505 1501 1499 1500 1501 1502 1504 1506 1508 1510 1512 1514 1516 1518 1519 1521 1523 1524 1525 1526 1526 1526 1527 1527 1528 1528 1528 1528
1489 1484 1484 1485 1483 1485 1488 1493 1499 1507 1517 1531 1520 1526 1524 1510 1501 1498 1497 1498 1499 1500 1503 1505 1507 1509 1511 1513 1516 1517 1518 1520 1521 1522 1524 1524 1525 1525 1526 1526 1526 1527 1527 1527
1492 1485 1480 1479 1485 1485 1489 1509 1529 1532 1540 1535 1516 1520 1518 1498 1491 1492 1494 1495 1497 1499 1501 1503 1506 1508 1509 1511 1514 1516 1517 1518 1519 1521 1522 1523 1524 1524 1524 1525 1525 1526 1526 1526
1503 1500 1481 1477 1481 1488 1490 1502 1527 1538 1541 1533 1517 1519 1507 1492 1490 1490 1491 1494 1496 1498 1500 1502 1504 1506 1507 1509 1512 1513 1515 1517 1518 1519 1521 1522 1522 1523 1523 1524 1524 1524 1524 1525
1499 1497 1476 1472 1472 1478 1488 1498 1500 1519 1524 1530 1524 1512 1500 1491 1490 1490 1492 1493 1494 1496 1498 1500 1502 1505 1506 1508 1510 1512 1514 1515 1517 1518 1519 1520 1521 1521 1522 1522 1523 1523 1523 1523
1484 1492 1480 1472 1471 1473 1478 1486 1505 1519 1532 1536 1524 1517 1513 1498 1493 1492 1492 1492 1493 1495 1497 1498 1501 1502 1505 1507 1509 1511 1512 1514 1515 1517 1517 1518 1519 1520 1520 1521 1521 1522 1522 1522
1479 1491 1486 1479 1480 1483 1483 1488 1499 1513 1519 1531 1534 1522 1493 1492 1490 1490 1490 1491 1492 1494 1495 1497 1500 1502 1504 1506 1508 1509 1511 1512 1514 1515 1516 1517 1518 1518 1519 1519 1520 1520 1521 1521
1478 1489 1495 1485 1473 1471 1476 1484 1496 1512 1516 1519 1526 1517 1485 1486 1486 1487 1489 1491 1492 1494 1495 1497 1499 1501 1503 1505 1506 1508 1509 1511 1512 1513 1514 1515 1516 1516 1517 1517 1518 1519 1519 1519
1476 1489 1502 1498 1490 1479 1479 1480 1486 1498 1509 1517 1522 1512 1487 1486 1486 1486 1488 1490 1492 1493 1495 1497 1499 1501 1502 1503 1505 1506 1508 1509 1511 1512 1512 1513 1514 1514 1515 1515 1516 1517 1517 1517
1470 1486 1496 1502 1496 1486 1483 1480 1481 1494 1510 1511 1508 1502 1492 1488 1488 1487 1487 1489 1491 1492 1494 1496 1498 1500 1501 1502 1503 1504 1505 1506 1508 1509 1510 1511 1512 1513 1513 1514 1514 1515 1515 1515
1473 1485 1483 1481 1477 1477 1478 1478 1479 1486 1492 1500 1496 1494 1490 1486 1485 1485 1486 1488 1490 1492 1494 1494 1496 1498 1500 1501 1502 1503 1503 1504 1506 1507 1508 1509 1510 1511 1511 1512 1512 1513 1513 1513
1476 1483 1483 1482 1475 1475 1477 1475 1476 1478 1481 1484 1486 1488 1481 1481 1482 1483 1485 1487 1489 1490 1492 1493 1494 1496 1498 1500 1500 1501 1502 1503 1503 1505 1506 1507 1508 1508 1509 1509 1510 1510 1511 1511
1480 1485 1492 1494 1482 1479 1486 1477 1475 1476 1475 1478 1485 1483 1479 1481 1481 1482 1483 1485 1487 1489 1490 1492 1493 1494 1496 1497 1499 1499 1501 1502 1502 1503 1504 1505 1505 1506 1506 1507 1507 1508 1508 1508
1479 1486 1495 1496 1491 1498 1486 1470 1469 1473 1475 1474 1475 1475 1475 1476 1478 1480 1482 1483 1485 1487 1488 1490 1491 1493 1494 1495 1497 1498 1499 1500 1500 1501 1502 1503 1503 1503 1504 1504 1505 1506 1506 1506
1471 1482 1493 1499 1499 1492 1480 1472 1471 1474 1478 1474 1474 1474 1475 1476 1479 1482 1482 1482 1484 1485 1487 1488 1489 1490 1492 1493 1494 1496 1497 1498 1499 1499 1500 1501 1501 1501 1501 1502 1503 1503 1503 1503
1471 1476 1489 1495 1497 1499 1486 1472 1468 1472 1482 1474 1472 1473 1475 1475 1482 1483 1481 1482 1483 1484 1485 1487 1489 1489 1490 1490 1491 1492 1493 1495 1496 1497 1498 1499 1499 1499 1499 1499 1500 1501 1501 1501
1483 1485 1490 1493 1496 1490 1477 1470 1468 1484 1483 1473 1471 1472 1473 1474 1476 1478 1479 1480 1481 1482 1483 1485 1487 1488 1488 1489 1490 1491 1491 1492 1493 1495 1496 1496 1497 1497 1497 1497 1498 1498 1498 1498
1485 1488 1491 1493 1497 1494 1473 1471 1475 1477 1472 1471 1470 1471 1472 1473 1475 1476 1478 1479 1480 1480 1482 1483 1485 1486 1487 1487 1488 1488 1489 1490 1491 1492 1493 1494 1494 1494 1495 1495 1496 1496 1496 1495
1481 1482 1484 1486 1487 1477 1473 1472 1471 1470 1470 1469 1470 1471 1472 1473 1475 1476 1477 1478 1479 1479 1481 1482 1483 1484 1485 1486 1487 1487 1488 1489 1490 1490 1490 1491 1492 1492 1493 1493 1493 1493 1493 1493
1478 1476 1479 1480 1477 1473 1472 1470 1470 1469 1469 1468 1469 1470 1471 1473 1474 1476 1476 1477 1479 1479 1480 1482 1482 1483 1483 1484 1485 1485 1486 1487 1488 1488 1488 1489 1490 1490 1490 1491 1490 1490 1490 1490
1478 1478 1479 1479 1475 1473 1472 1470 1470 1469 1468 1468 1469 1470 1470 1472 1473 1475 1475 1476 1477 1478 1480 1481 1481 1481 1482 1483 1483 1484 1484 1485 1485 1485 1486 1486 1486 1487 1487 1487 1487 1487 1487 1487
1476 1476 1478 1478 1474 1474 1472 1471 1471 1470 1468 1469 1470 1470 1471 1472 1473 1474 1475 1475 1476 1477 1478 1479 1480 1480 1481 1482 1482 1482 1482 1483 1483 1483 1483 1483 1483 1483 1483 1483 1483 1483 1483 1483